Location: Invercargill
(46.4000°S, 168.3500°E)
Time: 17:45:13
(UTC+12:00)

ERS-2 - Pass Details

Date: 14 May 2021
Orbit: 491 x 496 km, 98.5° (Epoch: 14 June)

Event Time Altitude Azimuth Distance (km) Brightness Sun altitude
Rises 19:02:07 0° 23° (NNE) 2,578 5.6 -16.7°
Reaches altitude 10° 19:04:11 10° 26° (NNE) 1,705 4.7 -17.0°
Maximum altitude 19:07:49 64° 107° (ESE) 566 2.0 -17.6°
Drops below altitude 10° 19:11:31 10° 188° (S) 1,735 4.9 -18.3°
Sets 19:13:38 0° 191° (S) 2,629 5.8 -18.6°
